Wind_Speed
32 32 33 33 34 35 35 35 36 36 36 36 35 35 33 32 32 31 29 28 26 26 27 27 25 23 21 18 17 15 14 14 13 12 13 14 14 11 7 6 9 12 14
33 32 32 33 33 33 34 35 35 34 33 32 32 32 30 30 30 31 31 30 28 26 28 30 29 27 24 21 20 18 16 15 13 12 13 14 13 11 8 7 8 11 14
35 35 35 35 34 33 34 34 33 32 31 31 29 28 28 28 28 28 29 29 27 27 27 28 29 29 26 25 23 19 17 14 12 11 12 14 14 12 10 8 8 10 14
35 35 35 36 35 33 32 32 32 30 29 29 26 25 26 26 24 24 25 25 27 28 27 25 25 25 25 24 24 21 19 16 13 11 11 14 14 12 11 10 11 12 15
34 35 34 35 34 32 30 30 31 30 28 26 25 24 25 25 24 23 24 25 27 27 26 24 23 23 23 23 22 21 20 18 15 13 10 11 10 11 11 12 15 16 17
33 35 34 33 32 30 29 30 30 28 25 23 21 19 19 20 21 21 22 24 26 26 26 24 24 24 24 23 22 22 23 22 19 16 14 13 12 12 11 10 12 15 18
33 34 35 34 32 30 29 29 29 27 24 22 20 18 18 19 20 20 20 21 22 23 23 22 21 22 23 23 23 24 24 25 24 21 18 16 15 15 14 13 13 13 15
34 34 35 35 34 33 32 31 31 30 28 25 24 22 22 23 24 24 24 23 21 20 20 20 20 21 22 23 24 26 26 26 25 24 22 20 20 20 19 16 14 14 13
33 33 34 35 34 33 34 34 35 35 34 32 30 28 27 27 28 28 28 27 25 23 22 22 22 22 22 23 24 27 28 28 28 27 25 24 23 23 23 21 19 17 17
28 28 30 32 32 32 33 34 36 38 39 37 36 34 31 30 31 31 31 30 28 26 26 26 26 26 26 26 27 28 30 31 31 30 28 27 26 25 25 24 22 21 20
26 26 27 27 28 28 29 32 33 32 33 34 35 35 33 32 32 33 33 32 31 30 30 31 31 30 29 29 29 29 29 30 32 31 29 27 26 26 25 24 23 22 23
22 25 26 26 27 27 28 30 33 31 29 29 30 31 32 32 34 36 37 38 38 36 35 35 35 34 32 32 31 30 29 29 30 29 28 27 26 26 25 25 26 26 27
17 19 21 23 23 23 23 24 25 26 25 25 26 27 29 31 33 35 37 37 37 37 37 38 38 36 34 34 33 32 30 30 30 28 27 26 26 25 25 24 24 25 25
18 19 20 22 24 24 24 22 22 21 21 20 21 22 25 27 29 32 34 35 36 36 37 39 39 38 36 36 35 34 33 33 32 31 29 29 28 28 27 26 25 25 25
23 25 26 26 27 27 26 24 24 23 22 22 22 22 24 26 28 31 33 34 35 35 36 37 38 38 38 38 38 38 37 37 36 35 34 33 33 32 32 30 29 28 28
30 31 31 30 28 28 28 28 27 27 26 27 28 30 30 31 32 34 36 37 38 38 38 38 40 41 41 42 42 41 41 40 40 39 38 37 36 36 36 35 34 33 32
30 32 33 33 33 33 33 32 31 30 30 32 34 35 36 37 38 39 40 41 41 42 43 43 43 44 46 47 47 46 44 43 43 42 42 42 42 41 40 39 38 36 36
33 34 35 36 37 38 39 37 36 35 35 36 37 39 40 41 43 44 45 45 44 44 44 45 46 46 46 47 48 48 48 47 45 43 42 43 44 44 42 41 40 40 39
33 35 36 37 37 37 38 38 38 38 39 40 41 42 43 45 47 49 50 51 51 50 50 49 48 47 46 45 46 47 47 46 45 44 43 43 44 44 44 43 43 44 44
29 31 33 33 34 34 34 35 37 38 40 41 43 44 45 46 47 48 50 50 49 48 48 49 49 49 48 47 46 46 46 46 46 46 46 46 45 45 45 45 45 46 47
28 29 30 31 32 33 35 36 37 37 39 41 43 45 46 47 47 47 47 47 47 46 45 45 46 47 48 47 46 46 47 48 48 49 49 50 49 48 47 47 47 48 49
27 29 31 32 34 35 36 37 38 38 38 40 42 44 46 48 49 50 50 50 49 48 48 48 47 47 46 46 46 47 48 49 50 50 50 49 48 48 47 47 47 48 50
27 29 31 33 36 37 38 39 40 41 42 43 44 45 47 48 49 50 51 51 52 52 52 52 51 50 49 48 47 46 47 48 47 46 47 47 47 48 48 49 49 50 50
30 32 34 35 36 36 36 37 39 41 44 45 46 46 46 46 47 48 49 50 52 53 54 55 55 54 53 51 49 48 47 46 45 45 46 48 48 49 49 50 50 51 51
31 32 33 33 33 33 34 36 40 42 43 44 44 44 44 44 45 46 47 48 50 51 53 54 54 54 54 53 52 50 49 49 49 50 51 51 52 52 52 52 52 52 51
30 32 33 33 34 35 37 39 41 41 40 39 39 39 39 40 41 43 44 46 47 48 49 50 52 53 54 54 53 52 51 51 51 52 53 54 54 54 54 54 54 53 53
Wind_Direction
267 268 268 269 269 269 270 272 273 272 273 274 273 270 266 264 260 253 250 250 254 261 265 264 262 262 260 258 262 268 271 270 265 267 271 269 267 265 266 231 210 200 198
262 265 267 268 269 271 271 273 274 272 271 272 271 266 261 261 260 254 253 251 254 259 265 263 259 259 260 259 263 264 266 264 255 260 264 264 270 267 265 243 228 221 216
260 262 264 264 266 270 271 270 271 271 270 271 270 265 260 260 259 255 252 253 254 261 264 260 258 257 258 257 258 258 257 256 248 243 255 260 267 263 266 259 243 236 229
261 262 263 263 263 267 268 267 266 269 271 268 265 264 256 253 253 249 248 252 255 256 254 253 254 254 254 254 255 254 252 249 243 239 247 251 251 252 262 274 269 258 240
260 260 262 262 261 264 264 262 263 266 268 264 260 258 251 248 251 252 252 252 251 250 249 250 252 253 254 255 254 252 249 246 243 239 237 223 231 245 260 280 282 274 256
260 257 259 260 259 260 260 258 258 261 261 257 254 252 249 248 249 249 249 247 248 248 250 251 252 251 251 253 254 253 249 247 245 244 240 230 228 231 242 265 279 278 269
263 257 256 256 257 256 255 254 253 254 254 250 248 247 247 246 245 243 241 242 244 246 246 245 246 248 249 250 251 253 252 249 246 244 242 241 240 238 240 247 254 260 266
259 256 253 253 252 252 251 251 248 249 250 248 245 242 241 241 242 241 240 240 241 244 246 245 245 246 247 248 249 249 249 248 247 244 242 242 246 250 249 248 247 246 249
254 252 249 250 249 248 246 244 243 244 244 244 241 238 239 239 240 242 244 245 246 248 252 254 253 252 252 251 250 248 247 246 245 243 242 241 244 248 249 249 249 247 243
248 246 246 246 247 247 244 241 237 238 240 240 238 236 237 239 240 243 243 244 248 252 256 258 258 257 258 259 256 251 247 246 243 241 239 239 239 241 243 244 245 246 244
241 238 236 237 240 241 240 237 236 238 240 240 239 238 237 239 242 244 243 244 247 251 255 255 255 255 256 256 255 252 249 246 244 241 241 242 243 243 245 246 244 245 246
236 234 231 231 236 240 245 246 248 252 254 249 245 244 244 244 245 246 246 245 247 251 252 253 253 253 253 253 252 251 250 248 246 244 244 245 247 249 251 253 254 253 253
240 237 236 237 243 251 260 263 263 263 260 256 252 250 250 250 250 249 248 248 249 251 251 251 251 250 250 250 250 250 248 246 244 243 243 244 245 246 247 249 253 256 258
246 247 246 250 257 263 267 265 263 261 262 261 258 256 256 256 256 255 254 252 251 250 249 250 251 250 249 248 248 247 245 244 245 244 243 244 245 246 246 247 249 254 258
245 246 248 252 256 258 257 255 255 259 261 257 254 252 255 256 255 255 256 255 254 253 253 253 252 250 249 248 247 247 248 248 249 249 248 247 247 249 249 248 249 252 255
250 248 250 251 251 250 250 252 254 257 255 250 249 251 253 255 256 258 259 258 256 255 255 256 256 255 253 251 249 249 249 250 252 253 253 251 250 250 250 250 251 254 257
253 251 251 250 249 249 250 251 253 256 256 254 254 255 256 258 258 258 258 258 258 257 258 258 259 259 259 257 256 255 255 254 253 255 256 257 255 254 253 253 254 255 257
265 265 262 261 260 260 260 262 262 262 261 260 260 260 260 260 260 260 259 260 261 262 262 260 259 258 258 258 258 259 259 259 259 260 261 261 261 259 258 258 258 258 258
277 277 277 277 277 277 277 276 275 272 269 267 267 265 263 262 262 262 262 263 264 265 266 266 263 260 259 260 261 261 260 260 261 263 264 265 266 266 265 264 263 262 261
283 282 281 281 280 279 277 274 273 271 268 266 266 265 265 264 263 262 262 263 264 266 267 267 265 265 265 267 269 270 270 270 270 270 270 270 270 269 268 266 265 264 263
286 285 284 283 281 279 278 276 275 274 272 270 267 264 262 260 259 259 259 260 262 264 265 265 265 264 264 264 265 265 267 268 269 269 270 271 270 269 267 265 262 261 261
291 290 288 285 283 280 278 276 276 275 273 270 268 266 263 261 259 258 258 260 261 262 263 263 263 262 262 261 260 259 259 259 261 262 263 264 264 264 263 262 260 259 258
297 296 295 293 290 287 285 283 282 280 277 274 270 267 264 263 261 261 260 260 260 259 259 259 260 260 260 260 259 258 257 257 257 257 258 259 259 259 259 259 258 259 260
304 304 302 299 295 291 288 286 285 284 282 280 276 272 267 264 263 262 262 261 260 260 260 260 260 261 261 260 259 257 257 257 255 252 252 255 258 260 260 260 259 258 258
309 308 305 301 296 292 290 288 287 286 283 280 278 274 269 265 263 263 264 264 263 261 261 260 260 260 260 260 259 258 256 256 254 252 250 251 254 257 260 261 261 260 258
318 319 318 313 307 300 296 293 291 290 286 281 277 274 271 268 267 266 266 267 266 265 264 263 261 260 260 260 259 258 256 254 253 252 252 253 254 256 258 260 262 262 261
Height
5800 5800 5801 5802 5803 5803 5803 5803 5803 5803 5802 5802 5802 5802 5802 5803 5805 5807 5809 5811 5813 5814 5815 5816 5817 5817 5817 5817 5817 5817 5816 5815 5814 5813 5813 5814 5814 5815 5815 5815 5815 5816 5817
5791 5791 5792 5793 5794 5794 5795 5796 5795 5795 5794 5793 5792 5792 5793 5794 5795 5798 5800 5803 5805 5806 5808 5809 5811 5811 5812 5812 5812 5812 5812 5811 5810 5809 5809 5810 5811 5812 5813 5814 5813 5814 5816
5782 5782 5783 5784 5785 5786 5786 5787 5787 5786 5786 5785 5784 5783 5784 5786 5788 5789 5792 5794 5796 5798 5800 5802 5803 5805 5806 5806 5806 5807 5808 5807 5806 5805 5805 5806 5808 5809 5811 5811 5812 5812 5813
5773 5773 5774 5775 5776 5777 5778 5779 5779 5779 5778 5777 5777 5776 5777 5779 5780 5782 5784 5786 5788 5790 5793 5795 5796 5798 5799 5800 5800 5801 5803 5803 5803 5802 5802 5803 5804 5806 5807 5808 5809 5809 5810
5763 5764 5765 5766 5767 5768 5769 5770 5771 5771 5771 5770 5770 5770 5770 5772 5773 5774 5776 5779 5781 5783 5786 5788 5790 5791 5793 5794 5794 5796 5798 5799 5799 5798 5798 5798 5799 5801 5803 5804 5804 5805 5806
5754 5755 5756 5757 5758 5759 5761 5762 5763 5764 5763 5763 5763 5763 5764 5765 5766 5768 5770 5772 5775 5777 5779 5781 5783 5784 5786 5787 5788 5790 5792 5794 5794 5794 5794 5795 5795 5796 5798 5799 5800 5800 5801
5744 5746 5747 5748 5749 5750 5752 5753 5754 5756 5756 5756 5756 5757 5758 5759 5761 5762 5764 5767 5769 5771 5773 5774 5775 5777 5779 5781 5782 5784 5785 5787 5789 5789 5790 5791 5793 5793 5794 5794 5795 5796 5796
5733 5735 5736 5738 5740 5742 5743 5744 5746 5747 5748 5749 5749 5750 5752 5754 5755 5757 5759 5760 5763 5765 5766 5768 5769 5770 5772 5774 5776 5778 5780 5781 5783 5783 5784 5785 5787 5789 5790 5790 5790 5790 5791
5722 5724 5726 5728 5731 5732 5734 5736 5737 5738 5740 5741 5742 5743 5745 5747 5748 5750 5752 5754 5756 5758 5759 5760 5762 5763 5765 5767 5769 5771 5773 5775 5776 5777 5778 5779 5780 5782 5784 5785 5785 5785 5786
5714 5715 5717 5719 5721 5723 5725 5726 5728 5729 5731 5732 5733 5735 5737 5739 5740 5742 5744 5747 5749 5750 5751 5752 5754 5756 5757 5759 5760 5762 5765 5767 5769 5771 5772 5772 5773 5775 5777 5778 5779 5780 5780
5707 5708 5710 5711 5712 5714 5716 5718 5719 5720 5722 5723 5724 5726 5727 5729 5732 5734 5736 5739 5740 5741 5742 5743 5745 5747 5748 5749 5751 5753 5755 5758 5760 5762 5764 5765 5766 5767 5769 5771 5772 5773 5774
5701 5702 5704 5704 5705 5706 5708 5709 5710 5711 5712 5714 5715 5716 5718 5720 5722 5724 5727 5729 5730 5731 5732 5732 5734 5736 5738 5740 5742 5744 5745 5748 5750 5752 5754 5756 5758 5760 5762 5763 5764 5765 5766
5696 5697 5698 5698 5699 5699 5700 5700 5701 5702 5703 5704 5706 5707 5708 5709 5710 5712 5714 5717 5719 5720 5721 5722 5723 5725 5728 5730 5732 5734 5736 5739 5741 5743 5744 5746 5749 5751 5753 5754 5756 5757 5758
5691 5691 5692 5693 5693 5693 5693 5692 5693 5694 5695 5696 5697 5698 5699 5699 5701 5702 5704 5705 5707 5709 5710 5712 5713 5715 5717 5720 5722 5724 5726 5729 5731 5732 5734 5736 5739 5741 5743 5744 5746 5747 5748
5685 5685 5686 5686 5686 5686 5686 5686 5686 5686 5687 5689 5690 5691 5692 5692 5693 5694 5694 5695 5696 5697 5700 5702 5703 5705 5706 5708 5711 5713 5715 5718 5720 5722 5724 5726 5728 5730 5732 5734 5735 5736 5738
5678 5678 5678 5678 5679 5678 5678 5678 5678 5679 5679 5680 5681 5682 5683 5683 5683 5684 5684 5685 5686 5687 5689 5690 5692 5693 5694 5696 5697 5700 5703 5705 5708 5710 5712 5714 5716 5718 5720 5722 5723 5725 5727
5669 5668 5668 5669 5669 5669 5669 5669 5670 5670 5670 5671 5671 5671 5672 5672 5672 5673 5673 5673 5675 5676 5677 5678 5679 5681 5682 5683 5684 5687 5690 5692 5695 5697 5699 5701 5702 5704 5707 5708 5710 5712 5714
5659 5658 5658 5658 5658 5658 5658 5658 5658 5658 5659 5658 5659 5659 5659 5660 5660 5660 5660 5661 5662 5663 5664 5665 5666 5667 5668 5669 5670 5673 5676 5678 5681 5683 5685 5687 5689 5690 5691 5693 5695 5697 5699
5650 5649 5648 5648 5648 5647 5646 5645 5645 5645 5645 5645 5645 5645 5646 5646 5646 5645 5645 5646 5647 5648 5649 5650 5651 5652 5654 5656 5658 5660 5662 5664 5666 5667 5670 5672 5674 5676 5677 5678 5680 5682 5683
5641 5640 5639 5638 5636 5635 5634 5633 5633 5632 5632 5631 5631 5631 5631 5631 5631 5631 5631 5632 5632 5632 5633 5634 5635 5637 5639 5642 5645 5646 5648 5650 5651 5652 5653 5656 5659 5661 5663 5664 5665 5666 5668
5633 5631 5629 5627 5625 5623 5622 5621 5620 5619 5617 5616 5615 5615 5615 5615 5615 5615 5616 5616 5616 5617 5617 5618 5619 5621 5623 5626 5629 5631 5632 5634 5635 5637 5638 5640 5642 5645 5648 5649 5651 5651 5652
5624 5622 5619 5616 5614 5612 5610 5609 5607 5606 5604 5602 5600 5599 5598 5598 5598 5599 5599 5600 5601 5601 5601 5601 5603 5604 5607 5609 5611 5613 5614 5616 5618 5620 5622 5624 5626 5628 5630 5631 5633 5635 5636
5616 5613 5610 5606 5603 5600 5597 5595 5593 5590 5588 5586 5584 5583 5582 5581 5581 5582 5582 5583 5583 5584 5584 5584 5585 5587 5589 5592 5594 5596 5597 5599 5601 5604 5606 5607 5609 5610 5612 5613 5615 5617 5619
5608 5605 5601 5596 5592 5589 5585 5582 5579 5575 5572 5570 5568 5566 5565 5565 5565 5565 5565 5566 5566 5567 5568 5568 5568 5569 5572 5574 5577 5579 5580 5581 5583 5586 5588 5590 5591 5592 5593 5595 5596 5598 5600
5600 5595 5591 5586 5581 5577 5574 5570 5565 5561 5558 5554 5551 5549 5548 5548 5549 5549 5549 5549 5549 5549 5550 5550 5550 5551 5553 5555 5558 5561 5563 5565 5567 5568 5570 5572 5574 5575 5576 5577 5578 5580 5582
5591 5585 5580 5575 5569 5565 5560 5555 5550 5546 5542 5539 5537 5535 5534 5533 5533 5533 5533 5532 5532 5532 5532 5532 5532 5533 5534 5536 5539 5542 5544 5547 5549 5550 5552 5554 5556 5558 5559 5560 5561 5562 5564